Location: ??????????
(54.7560°N, 39.1389°E)
Time: 03:51:50
(UTC+00:00)

Cosmos 2360 Rocket - Pass Details

Date: 19 May 2025
Orbit: 834 x 842 km, 71.0° (Epoch: 19 June)

Event Time Altitude Azimuth Distance (km) Brightness Sun altitude
Rises 23:11:25 0° 314° (NW) 3,394 5.6 -11.6°
Reaches altitude 10° 23:16:45 10° 272° (W) 2,451 4.4 -11.2°
Maximum altitude 23:17:14 10° 267° (W) 2,443 4.3 -11.2°
Drops below altitude 10° 23:17:41 10° 262° (W) 2,449 4.3 -11.1°
Enters shadow 23:19:31 - 244° (WSW) 2,611 4.3 -11.0°
